Regional Weather Roundup
Issued by NWS

Home | Current Version | Previous Version | Text Only | Print | Product List | Glossary On
Versions: 1 2 3 4 5 6 7 8 9 10 11 12 13 14 15 16 17 18 19 20 21 22 23 24 25 26 27 28 29 30 31 32 33 34 35 36 37 38 39 40 41 42 43 44 45 46 47 48 49 50
000
ASUS43 KDTX 131701
RWRMI
MICHIGAN HOURLY REGIONAL WEATHER ROUNDUP
NATIONAL WEATHER SERVICE DETROIT/PONTIAC MI
1200 PM EST WED DEC 13 2017

NOTE: "FAIR" INDICATES FEW OR NO CLOUDS BELOW 12,000 FEET WITH NO
SIGNIFICANT WEATHER AND/OR OBSTRUCTION TO VISIBILITY.

MIZ047>049-052>055-059>063-066>070-074>076-081>083-131800-
SOUTHEAST LOWER MICHIGAN

CITY           SKY/WX    TMP DP  RH WIND       PRES   REMARKS
ADRIAN         LGT SNOW  18  14  84 S13       29.67F FOG     WCI   5
ALMA           LGT SNOW  19  17  92 SE7       29.62F VSB 1   WCI   9
ANN ARBOR      LGT SNOW  17  14  88 SE8       29.67F VSB 3/4 WCI   7
BAD AXE        CLOUDY    17   9  72 S8        29.70F WCI   6
CARO           LGT SNOW  18  13  80 SE8       29.67F WCI   8
DETROIT CITY   LGT SNOW  20  15  81 SW14      29.71F WCI   7
DETROIT        LGT SNOW  21  16  81 S10       29.71F VSB 3/4 WCI  10
FLINT          LGT SNOW  18  14  84 SE9       29.66F VSB 3/4 WCI   7
GROSSE ILE     LGT SNOW  21  18  86 SW14      29.70F VSB 1   WCI   8
HILLSDALE      CLOUDY    21  12  68 SE12      29.58F WCI   9
HOWELL         LGT SNOW  18  16  90 S12       29.64F VSB 3/4 WCI   6

CITY           SKY/WX    TMP DP  RH WIND       PRES   REMARKS
JACKSON        CLOUDY    18  12  77 SE13      29.60F WCI   5
LAMBERTVILLE   LGT SNOW  19  15  85 SE5       29.69F VSB 1   WCI  12
LANSING        LGT SNOW  18  15  88 SE15      29.62F VSB 3/4 WCI   4
LAPEER         LGT SNOW  19  14  82 SE6       29.68F WCI  11
MASON          LGT SNOW  19  13  79 SE10      29.62F VSB 3/4 WCI   7
MONROE         LGT SNOW  19  16  85 S9        29.70F VSB 1   WCI   9
MT. CLEMENS    LGT SNOW  20  17  89 S5        29.69F WCI  13
PONTIAC        LGT SNOW  18  15  88 S8        29.65F VSB 1   WCI   8
PORT HOPE        N/A     17   8  67 SW8       29.71F WCI   7
PORT HURON     LGT SNOW  19  10  68 S6        29.72F WCI  11
TRI CITIES     SNOW      19  16  88 SE10      29.66F VSB 1/2 WCI   7
MIDLAND        LGT SNOW  19  15  83 SE10      29.65F VSB 3/4 WCI   8
TROY           LGT SNOW  21  17  84 S9        29.71F WCI  11
SAGINAW HB     LGT SNOW  19  18  93 SE8       29.66F WCI   9
$$
MIZ043>046-050>051-056>058-064>065-071>073-077>080-131800-
SOUTHWEST LOWER MICHIGAN

CITY           SKY/WX    TMP DP  RH WIND       PRES   REMARKS
BATTLE CREEK   CLOUDY    21  13  71 SE15G21   29.54F WCI   8
BENTON HARBOR  CLOUDY    26  12  55 SE14G31   29.42F WCI  14
BIG RAPIDS     HVY SNOW  18  15  88 SE9       29.55F VSB<1/4 WCI   6
COLDWATER      LGT SNOW  22  13  69 SE13G18   29.56F WCI  10
FREMONT        LGT SNOW  19  17  89 E10G20    29.50F WCI   8
HOLLAND        CLOUDY    22  13  68 SE21      29.47F WCI   6
GRAND RAPIDS   FLURRIES  20  16  84 SE15      29.53F WCI   6
IONIA          LGT SNOW  19  15  86 E16       29.56F WCI   4
KALAMAZOO      CLOUDY    23  13  65 SE8G20    29.52F WCI  14
LUDINGTON      CLOUDY    20  15  82 E15G24    29.48F WCI   6
MARSHALL       CLOUDY    19  12  73 SE10      29.55F WCI   8
MOUNT PLEASANT LGT SNOW  19  14  83 SE10      29.61F VSB 3/4 WCI   7
MUSKEGON       FLURRIES  21  14  74 E24       29.46F WCI   4
SOUTH HAVEN    CLOUDY    27  11  51 SE13      29.44F WCI  16
$$
MIZ016>042-131800-
NORTHERN LOWER MICHIGAN

CITY           SKY/WX    TMP DP  RH WIND       PRES   REMARKS
ALPENA         CLOUDY    14   8  77 CALM      29.69F
BEAVER ISLAND  LGT SNOW  17  13  83 E12G20    29.65F WCI   4
BELLAIRE       LGT SNOW  15  12  88 E3        29.64F
CADILLAC       LGT SNOW  15  12  87 E12       29.53F VSB 1   WCI   2
CHARLEVOIX     LGT SNOW  15  11  83 E10G16    29.67F WCI   3
FRANKFORT      SNOW      20  17  86 E8        29.55F VSB 1/2 WCI  10
GAYLORD        LGT SNOW  10   5  80 SE7       29.61F WCI  -1
GRAYLING       LGT SNOW  13   8  78 E8        29.62F WCI   2
HARBOR SPRINGS CLOUDY    13   6  72 E12       29.66F WCI  -1
HOUGHTON LAKE  LGT SNOW  14   9  80 E9        29.61F WCI   2
MANISTEE       LGT SNOW  19  16  88 E15       29.51F VSB 3/4 WCI   5
OSCODA         CLOUDY    15   4  62 S5        29.69F WCI   7
PELLSTON       CLOUDY    13   7  77 SE8       29.68F WCI   2
ROGERS CITY    CLOUDY    13   5  70 S6        29.70F WCI   4
TRAVERSE CITY  LGT SNOW  18  14  84 SE8       29.59F VSB 3/4 WCI   8
$$
MIZ007>008-015-131800-
EASTERN UPPER MICHIGAN

CITY           SKY/WX    TMP DP  RH WIND       PRES   REMARKS
KINROSS        CLOUDY     3  -5  69 NE5       29.70F WCI  -6
MACKINAC ISLAN LGT SNOW  15  11  85 E12       29.66F WCI   1
NEWBERRY       CLOUDY     2  -2  83 NE7       29.67F WCI -11
S. S. MARIE    SUNNY      3  -3  76 CALM      29.72F
MUNISING         N/A     13   9  84 VRB5      29.64F WCI   5
$$
MIZ004>006-011>014-085-131800-
CENTRAL UPPER MICHIGAN

CITY           SKY/WX    TMP DP  RH WIND       PRES   REMARKS
MANISTIQUE     LGT SNOW  14   9  81 NE12      29.62F VSB 3/4 WCI   0
ESCANABA       LGT SNOW  19  16  88 NE10      29.55F FOG     WCI   7
MENOMINEE      LGT SNOW  26  24  92 E20G28    29.48F FOG     WCI  12
SAWYER-GWINN   LGT SNOW  14  10  85 E10       29.57F VSB 3/4 WCI   1
$$
MIZ001>003-009>011-084-131800-
WESTERN UPPER MICHIGAN

CITY           SKY/WX    TMP DP  RH WIND       PRES   REMARKS
IRON MOUNTAIN  SNOW      16  11  80 NE10      29.49F VSB 1/2 WCI   4
HOUGHTON         N/A    N/A N/A N/A MISG      29.60R
COPPER HARBOR    N/A     22  17  81 S9G18     29.64F WCI  12
IRONWOOD       LGT SNOW  13   9  84 E10       29.53S FOG     WCI   0
$$

ABBREVIATIONS USED IN REMARKS
   TC - TEMPERATURE IN CELSIUS
  WCI - WIND CHILL INDEX
   HX - HEAT INDEX
  VSB - VISIBILITY





USA.gov is the U.S. government's official web portal to all federal, state and local government web resources and services.